1497909600.37,18375,22.19,74628.5,3.63,-28.21,-28.59,0,*7C
1497909601.6,18376,22.19,74626.5,3.63,-28.37,-28.59,0,*78
1497909602.82,18377,22.19,74626.3,3.63,-28.37,-28.79,0,*7B
1497909604.07,18378,22.19,74624.3,3.63,-28.25,-28.75,0,*7B
1497909605.27,18379,22.19,74626.8,3.65,-28.15,-28.69,0,*72
1497909606.5,18380,22.19,74626.3,3.65,-28.31,-28.63,0,*78
1497909607.74,18381,22.19,74628.8,3.65,-28.21,-28.69,0,*72
1497909608.96,18382,22.19,74628.8,3.63,-28.37,-28.75,0,*7D
1497909610.18,18383,22.19,74624.8,3.63,-28.53,-28.79,0,*72
1497909611.4,18384,22.19,74626.0,3.63,-28.53,-28.79,0,*75
1497909612.6,18385,22.19,74628.8,3.63,-28.53,-28.97,0,*74
1497909613.79,18386,22.19,74626.3,3.63,-28.53,-29.07,0,*7F
1497909614.99,18387,22.19,74628.3,3.63,-28.69,-29.07,0,*77
1497909616.21,18388,22.19,74628.8,3.63,-28.37,-28.75,0,*77
1497909617.43,18389,22.19,74626.5,3.63,-28.53,-28.79,0,*78
1497909618.65,18390,22.19,74626.5,3.63,-28.37,-28.75,0,*7E
1497909619.89,18391,22.19,74628.8,3.61,-28.43,-28.97,0,*72
1497909621.09,18392,22.19,74630.0,3.63,-28.53,-29.07,0,*7A
1497909622.31,18393,22.19,74628.3,3.63,-28.43,-28.97,0,*72
1497909623.53,18394,22.19,74626.0,3.63,-28.25,-28.69,0,*74
1497909624.75,18395,22.19,74624.0,3.63,-28.43,-28.97,0,*74
1497909626.0,18396,22.19,74626.5,3.61,-28.25,-28.69,0,*74
1497909627.23,18397,22.19,74624.8,3.63,-28.37,-28.59,0,*77
1497909628.43,18398,22.19,74624.8,3.63,-28.37,-28.69,0,*7B
1497909629.66,18399,22.19,74628.5,3.63,-28.21,-28.69,0,*7D
1497909630.94,18400,22.19,74628.8,3.61,-28.21,-28.59,0,*7B
1497909632.21,18401,22.19,74626.5,3.61,-28.09,-28.59,0,*70
1497909633.47,18402,22.19,74624.3,3.63,-28.25,-28.59,0,*7F
1497909634.69,18403,22.13,74624.5,3.63,-28.37,-28.75,0,*73
1497909635.91,18404,22.19,74628.3,3.65,-28.37,-28.75,0,*72
1497909637.14,18405,22.13,74622.3,3.65,-28.37,-28.75,0,*73
1497909638.41,18406,22.19,74630.8,3.61,-28.09,-28.59,0,*77
1497909639.68,18407,22.19,74628.8,3.61,-28.43,-28.75,0,*76
1497909640.9,18408,22.19,74626.5,3.63,-28.37,-28.75,0,*78
1497909642.12,18409,22.19,74630.5,3.61,-28.53,-28.97,0,*75
1497909643.37,18410,22.19,74626.0,3.61,-28.59,-28.97,0,*77
1497909644.62,18411,22.19,74630.0,3.63,-28.25,-28.75,0,*73
1497909645.81,18412,22.19,74626.8,3.63,-28.69,-29.07,0,*7C
1497909647.05,18413,22.19,74628.0,3.63,-28.43,-28.79,0,*7D
1497909648.29,18414,22.19,74626.8,3.61,-28.43,-28.97,0,*78
1497909649.49,18415,22.19,74628.0,3.63,-28.53,-29.07,0,*72
1497909650.71,18416,22.19,74630.0,3.63,-28.37,-28.79,0,*7B
1497909651.95,18417,22.19,74628.5,3.61,-28.59,-29.07,0,*78
1497909653.22,18418,22.19,74624.3,3.61,-28.43,-28.79,0,*74
1497909654.43,18419,22.13,74626.0,3.63,-28.43,-28.97,0,*77
1497909655.68,18420,22.19,74626.0,3.61,-28.43,-28.97,0,*7F
1497909656.93,18421,22.19,74624.5,3.63,-28.25,-28.59,0,*7E
1497909658.21,18422,22.19,74626.5,3.61,-28.21,-28.59,0,*7B
1497909659.49,18423,22.19,74624.0,3.61,-28.21,-28.59,0,*7A
1497909660.71,18424,22.19,74626.3,3.61,-28.37,-29.07,0,*70
1497909661.92,18425,22.19,74626.8,3.61,-28.69,-29.07,0,*7A
1497909663.17,18426,22.19,74626.8,3.61,-28.25,-28.69,0,*78
1497909664.4,18427,22.19,74630.8,3.61,-28.37,-28.69,0,*7A
1497909665.62,18428,22.19,74626.3,3.61,-28.69,-29.07,0,*77
1497909666.86,18429,22.19,74628.8,3.61,-28.59,-29.07,0,*75
1497909668.08,18430,22.13,74624.0,3.61,-28.53,-29.07,0,*77
1497909669.32,18431,22.19,74628.5,3.61,-28.43,-29.07,0,*77
1497909670.54,18432,22.19,74626.8,3.61,-28.53,-28.97,0,*7D
1497909671.76,18433,22.19,74626.8,3.61,-28.53,-29.07,0,*74
1497909672.98,18434,22.19,74628.0,3.61,-28.53,-28.97,0,*7B
1497909674.21,18435,22.19,74628.0,3.61,-28.37,-28.69,0,*79
1497909675.45,18436,22.19,74624.3,3.61,-28.43,-28.97,0,*78
1497909676.67,18437,22.19,74624.3,3.59,-28.47,-28.85,0,*75
1497909677.92,18438,22.13,74624.0,3.59,-28.59,-29.13,0,*7B
1497909679.17,18439,22.19,74626.5,3.59,-28.59,-29.01,0,*79
1497909680.41,18440,22.19,74628.0,3.59,-28.47,-29.01,0,*78
1497909681.64,18441,22.13,74626.5,3.59,-28.15,-28.63,0,*7B
1497909682.89,18442,22.19,74624.3,3.59,-28.25,-28.63,0,*7B
1497909684.17,18443,22.19,74628.3,3.57,-28.63,-29.17,0,*74
1497909685.4,18444,22.19,74630.5,3.59,-28.43,-28.85,0,*75
1497909686.65,18445,22.13,74624.3,3.57,-28.37,-28.79,0,*7A
1497909687.9,18446,22.13,74626.3,3.57,-28.37,-28.79,0,*79
1497909689.16,18447,22.19,74630.3,3.59,-28.25,-28.63,0,*7E
1497909690.38,18448,22.19,74624.0,3.59,-28.43,-28.85,0,*79
1497909691.61,18449,22.19,74628.3,3.59,-28.15,-28.59,0,*7A
1497909692.83,18450,22.19,74624.8,3.59,-28.15,-28.59,0,*72
1497909694.07,18451,22.13,74622.3,3.59,-28.43,-28.79,0,*72
1497909695.29,18452,22.19,74624.3,3.59,-28.31,-28.79,0,*74
1497909696.52,18453,22.19,74626.3,3.59,-28.15,-28.63,0,*78
1497909697.78,18454,22.13,74626.8,3.59,-28.25,-28.63,0,*7C
1497909699.05,18455,22.13,74624.5,3.61,-28.09,-28.59,0,*71
1497909700.32,18456,22.19,74626.0,3.61,-28.09,-28.59,0,*72
1497909701.57,18457,22.19,74624.3,3.59,-28.25,-28.79,0,*74
1497909702.85,18458,22.13,74626.5,3.61,-28.25,-28.59,0,*72
1497909704.07,18459,22.19,74626.3,3.59,-28.31,-28.79,0,*7F
1497909705.31,18460,22.19,74628.5,3.59,-28.25,-28.75,0,*7C
1497909706.57,18461,22.19,74626.5,3.61,-28.05,-28.53,0,*70
1497909707.82,18462,22.13,74624.5,3.61,-28.37,-28.59,0,*78
1497909709.09,18463,22.19,74628.5,3.61,-28.09,-28.59,0,*74
1497909710.37,18464,22.19,74626.0,3.61,-28.05,-28.43,0,*74
1497909711.64,18465,22.19,74626.5,3.61,-28.05,-28.43,0,*75
1497909712.92,18466,22.13,74626.5,3.61,-28.25,-28.59,0,*7F
1497909714.15,18467,22.19,74628.8,3.61,-28.37,-28.69,0,*7E
1497909715.42,18468,22.19,74626.3,3.61,-28.21,-28.59,0,*75
1497909716.67,18469,22.13,74626.0,3.61,-28.37,-28.79,0,*71
1497909717.91,18470,22.19,74624.3,3.61,-28.43,-29.07,0,*72
1497909719.15,18471,22.13,74622.3,3.61,-28.37,-28.75,0,*74
1497909720.4,18472,22.19,74624.0,3.61,-28.09,-28.53,0,*7E
1497909721.67,18473,22.13,74624.5,3.61,-28.43,-28.79,0,*79
1497909722.89,18474,22.19,74624.0,3.59,-28.31,-28.75,0,*7C
1497909724.15,18475,22.19,74624.0,3.61,-28.43,-28.79,0,*7F
1497909725.37,18476,22.19,74626.3,3.61,-28.53,-29.07,0,*75
1497909726.64,18477,22.13,74624.8,3.61,-28.43,-28.75,0,*71
1497909727.91,18478,22.13,74624.5,3.61,-28.25,-28.75,0,*7E
1497909729.13,18479,22.19,74624.8,3.61,-28.37,-28.69,0,*71
1497909730.38,18480,22.13,74626.8,3.61,-28.37,-28.75,0,*7A
1497909731.6,18481,22.19,74624.0,3.63,-28.37,-28.79,0,*75
1497909732.86,18482,22.13,74626.3,3.61,-28.43,-28.79,0,*77
1497909734.11,18483,22.19,74626.3,3.61,-28.43,-28.69,0,*77
1497909735.37,18484,22.19,74628.0,3.61,-28.43,-28.75,0,*7D
1497909736.62,18485,22.19,74626.8,3.61,-28.43,-28.97,0,*70
1497909737.87,18486,22.19,74626.5,3.61,-28.25,-28.69,0,*72
1497909739.11,18487,22.19,74628.3,3.61,-28.59,-29.07,0,*71
1497909740.33,18488,22.19,74630.3,3.61,-28.69,-29.23,0,*7B
1497909741.57,18489,22.13,74624.8,3.59,-28.59,-29.17,0,*75
1497909742.81,18490,22.19,74624.0,3.57,-28.53,-28.85,0,*73
1497909744.05,18491,22.13,74624.5,3.59,-28.63,-29.13,0,*71
1497909745.28,18492,22.13,74626.5,3.59,-28.31,-28.63,0,*73
1497909746.54,18493,22.19,74628.0,3.57,-28.31,-28.63,0,*7C
1497909747.76,18494,22.13,74624.0,3.59,-28.31,-28.79,0,*7E
1497909748.98,18495,22.13,74622.8,3.59,-28.47,-28.85,0,*7D
1497909750.22,18496,22.13,74626.3,3.59,-28.63,-29.13,0,*76
1497909751.47,18497,22.19,74626.3,3.59,-28.09,-28.47,0,*7B
1497909752.69,18498,22.19,74624.5,3.59,-27.93,-28.43,0,*7C
1497909753.92,18499,22.19,74626.3,3.59,-28.09,-28.31,0,*74
1497909755.18,18500,22.13,74624.0,3.59,-28.25,-28.63,0,*7C
1497909756.43,18501,22.13,74624.8,3.59,-28.09,-28.47,0,*75
1497909757.68,18502,22.19,74626.3,3.59,-28.09,-28.59,0,*79
1497909758.9,18503,22.13,74626.8,3.59,-28.31,-28.79,0,*71
1497909760.15,18504,22.13,74626.3,3.59,-28.59,-29.01,0,*76
1497909761.4,18505,22.13,74626.8,3.59,-28.63,-29.01,0,*7E
1497909762.62,18506,22.13,74624.5,3.59,-28.59,-28.85,0,*79
1497909763.9,18507,22.13,74624.8,3.61,-28.25,-28.59,0,*79
1497909765.14,18508,22.13,74626.3,3.59,-28.59,-29.13,0,*79
1497909766.39,18509,22.13,74624.8,3.59,-28.63,-28.79,0,*7C
1497909767.61,18510,22.13,74622.8,3.59,-28.47,-28.85,0,*71
1497909768.85,18511,22.19,74624.0,3.59,-28.43,-28.79,0,*77
1497909770.1,18512,22.13,74624.5,3.59,-28.59,-29.13,0,*72
1497909771.35,18513,22.13,74622.5,3.59,-28.63,-29.01,0,*79
1497909772.57,18514,22.19,74624.5,3.59,-28.15,-28.47,0,*7C
1497909773.79,18515,22.13,74624.8,3.59,-28.31,-28.63,0,*7D
1497909775.02,18516,22.19,74624.0,3.59,-28.31,-28.63,0,*7E
1497909776.25,18517,22.13,74622.8,3.57,-28.31,-28.69,0,*7B
1497909777.5,18518,22.19,74624.5,3.57,-28.31,-28.79,0,*75
1497909778.75,18519,22.13,74626.3,3.59,-28.59,-29.01,0,*7A
1497909779.99,18520,22.13,74624.8,3.59,-28.75,-29.13,0,*7D
1497909781.23,18521,22.13,74622.8,3.59,-28.59,-28.79,0,*7F
1497909782.46,18522,22.19,74628.0,3.59,-28.59,-28.85,0,*7F
1497909783.71,18523,22.13,74624.8,3.57,-28.69,-29.17,0,*79
1497909784.99,18524,22.19,74626.5,3.57,-28.63,-28.91,0,*7B
1497909786.24,18525,22.19,74624.5,3.57,-28.63,-29.07,0,*74
1497909787.48,18526,22.19,74628.8,3.59,-28.59,-29.13,0,*75
1497909788.72,18527,22.19,74626.8,3.57,-28.37,-28.85,0,*7C
1497909790.0,18528,22.13,74626.8,3.57,-28.63,-28.91,0,*77
1497909791.23,18529,22.13,74624.3,3.57,-28.53,-29.07,0,*7B
1497909792.47,18530,22.19,74626.5,3.59,-28.59,-29.01,0,*71
1497909793.73,18531,22.13,74626.8,3.57,-28.47,-28.85,0,*7C
1497909795.01,18532,22.13,74624.8,3.57,-28.63,-28.91,0,*7C
1497909796.26,18533,22.13,74626.0,3.57,-28.53,-29.17,0,*71
1497909797.5,18534,22.13,74624.8,3.57,-28.53,-28.85,0,*7C
1497909798.74,18535,22.13,74624.3,3.59,-28.47,-28.79,0,*75
1497909800.01,18536,22.13,74626.5,3.57,-28.47,-28.91,0,*7E
1497909801.27,18537,22.13,74624.8,3.57,-28.53,-28.91,0,*7A
1497909802.49,18538,22.19,74626.5,3.55,-28.37,-28.79,0,*73
1497909803.75,18539,22.13,74624.8,3.57,-28.21,-28.53,0,*7F
1497909804.98,18540,22.13,74626.5,3.57,-28.31,-28.69,0,*79
1497909806.23,18541,22.13,74626.0,3.57,-28.47,-28.85,0,*7B
1497909807.47,18542,22.13,74624.0,3.55,-28.47,-28.79,0,*79
1497909808.72,18543,22.13,74624.0,3.55,-28.47,-28.91,0,*7E
1497909809.95,18544,22.13,74624.3,3.55,-28.47,-28.85,0,*7C
1497909811.23,18545,22.13,74624.0,3.53,-28.59,-28.91,0,*71
1497909812.46,18546,22.13,74624.5,3.57,-28.31,-28.85,0,*7D
1497909813.69,18547,22.13,74624.0,3.57,-28.15,-28.53,0,*71
1497909814.91,18548,22.13,74626.3,3.55,-28.47,-28.85,0,*70
1497909816.14,18549,22.13,74622.0,3.55,-28.31,-28.63,0,*78
1497909817.4,18550,22.19,74628.0,3.55,-28.21,-28.63,0,*71
1497909818.64,18551,22.13,74626.8,3.53,-28.37,-28.85,0,*79
1497909819.87,18552,22.13,74626.3,3.53,-28.53,-28.85,0,*78
1497909821.1,18553,22.13,74624.5,3.57,-28.15,-28.53,0,*74
1497909822.38,18554,22.13,74624.0,3.57,-28.05,-28.47,0,*77
1497909823.61,18555,22.13,74624.3,3.55,-28.15,-28.47,0,*75
1497909824.85,18556,22.13,74626.0,3.55,-28.47,-28.79,0,*7C
1497909826.07,18557,22.19,74628.0,3.55,-28.63,-29.07,0,*73
1497909827.27,18558,22.13,74624.3,3.55,-28.31,-28.69,0,*72
1497909828.5,18559,22.13,74624.8,3.55,-28.21,-28.53,0,*7B
1497909829.73,18560,22.13,74626.5,3.55,-28.31,-28.63,0,*73
1497909830.99,18561,22.13,74626.5,3.55,-28.21,-28.63,0,*73
1497909832.24,18562,22.13,74624.5,3.57,-28.31,-28.79,0,*78
1497909833.44,18563,22.13,74626.5,3.55,-28.37,-28.69,0,*7C
1497909834.71,18564,22.13,74624.8,3.57,-28.47,-28.79,0,*7F
1497909835.95,18565,22.13,74622.3,3.57,-28.37,-28.85,0,*7A
1497909837.16,18566,22.13,74624.3,3.55,-28.53,-28.85,0,*79
1497909838.41,18567,22.13,74624.8,3.57,-28.69,-29.17,0,*79
1497909839.63,18568,22.13,74624.0,3.55,-28.47,-28.85,0,*72
1497909840.86,18569,22.13,74624.5,3.55,-28.53,-28.91,0,*73
1497909842.07,18570,22.13,74624.3,3.55,-28.37,-28.69,0,*7E
1497909843.32,18571,22.13,74626.3,3.53,-28.69,-28.91,0,*75
1497909844.58,18572,22.13,74626.0,3.55,-28.25,-28.63,0,*75
1497909845.83,18573,22.13,74624.0,3.55,-28.21,-28.79,0,*7B
1497909847.04,18574,22.13,74624.8,3.55,-28.37,-28.69,0,*7A
1497909848.25,18575,22.13,74626.3,3.55,-28.37,-28.85,0,*79
1497909849.48,18576,22.13,74624.5,3.53,-28.37,-28.69,0,*7E
1497909850.68,18577,22.13,74622.5,3.55,-28.31,-28.69,0,*7F
1497909851.9,18578,22.13,74626.3,3.55,-28.31,-28.79,0,*71
1497909853.13,18579,22.19,74628.8,3.55,-28.31,-28.63,0,*7B
1497909854.33,18580,22.13,74624.8,3.55,-28.31,-28.69,0,*77
1497909855.58,18581,22.13,74624.0,3.57,-28.47,-28.85,0,*77
1497909856.84,18582,22.13,74624.8,3.57,-28.21,-28.69,0,*76
1497909858.07,18583,22.13,74626.8,3.55,-28.21,-28.69,0,*75
1497909859.33,18584,22.13,74626.3,3.53,-28.21,-28.69,0,*74
1497909860.58,18585,22.13,74622.3,3.53,-28.59,-28.97,0,*7B
1497909861.81,18586,22.13,74624.8,3.55,-28.53,-28.91,0,*72
1497909863.06,18587,22.13,74626.5,3.53,-28.59,-28.97,0,*79
1497909864.27,18588,22.13,74622.5,3.55,-28.53,-28.85,0,*79
1497909865.48,18589,22.13,74624.8,3.55,-28.53,-28.85,0,*78
1497909866.74,18590,22.13,74624.3,3.53,-28.43,-28.85,0,*77
1497909867.96,18591,22.13,74628.8,3.55,-28.37,-28.79,0,*70
1497909869.17,18592,22.13,74626.3,3.55,-28.53,-28.85,0,*72
1497909870.44,18593,22.13,74626.3,3.57,-28.47,-28.91,0,*71
1497909871.65,18594,22.13,74626.5,3.55,-28.53,-28.85,0,*74
1497909872.86,18595,22.13,74624.0,3.55,-28.37,-28.69,0,*75
1497909874.11,18596,22.13,74624.3,3.53,-28.37,-28.75,0,*7D
1497909875.37,18597,22.13,74624.8,3.55,-28.25,-28.63,0,*7E
1497909876.57,18598,22.13,74622.5,3.55,-28.31,-28.69,0,*7E
1497909877.83,18599,22.13,74624.0,3.55,-28.21,-28.63,0,*74
1497909879.09,18600,22.13,74628.8,3.53,-28.25,-28.69,0,*7F
1497909880.37,18601,22.13,74624.0,3.53,-28.09,-28.59,0,*73
1497909881.62,18602,22.13,74626.5,3.53,-28.43,-28.85,0,*7F
1497909882.88,18603,22.13,74626.3,3.55,-28.21,-28.63,0,*74
1497909884.12,18604,22.13,74620.5,3.53,-28.37,-28.69,0,*78
1497909885.32,18605,22.13,74624.0,3.55,-28.37,-28.69,0,*7F
1497909886.53,18606,22.13,74626.3,3.55,-28.37,-28.85,0,*7E
1497909887.75,18607,22.13,74624.0,3.55,-28.37,-28.79,0,*7C
1497909888.96,18608,22.13,74624.3,3.55,-28.37,-28.85,0,*70
1497909890.19,18609,22.13,74622.5,3.53,-28.69,-28.97,0,*7F
1497909891.39,18610,22.13,74624.5,3.55,-28.15,-28.53,0,*72
1497909892.62,18611,22.13,74624.0,3.55,-28.21,-28.53,0,*74
1497909893.88,18612,22.13,74624.5,3.53,-28.43,-28.85,0,*7E
1497909895.08,18613,22.13,74624.5,3.55,-28.31,-28.69,0,*7E
1497909896.34,18614,22.13,74622.3,3.55,-28.21,-28.63,0,*72
1497909897.6,18615,22.13,74624.5,3.55,-28.21,-28.63,0,*73
1497909898.87,18616,22.13,74624.3,3.53,-28.25,-28.75,0,*75
1497909900.1,18617,22.13,74624.0,3.55,-28.05,-28.37,0,*76
1497909901.36,18618,22.13,74624.5,3.55,-28.05,-28.47,0,*7E
1497909902.59,18619,22.13,74624.8,3.55,-28.21,-28.53,0,*7C
1497909903.85,18620,22.13,74624.3,3.53,-28.53,-28.91,0,*7B
1497909905.06,18621,22.13,74624.8,3.55,-28.53,-28.85,0,*79
1497909906.34,18622,22.13,74626.3,3.53,-28.59,-28.91,0,*73
1497909907.59,18623,22.13,74626.0,3.53,-28.43,-28.85,0,*7C
1497909908.8,18624,22.13,74624.3,3.55,-28.37,-28.69,0,*7C
1497909910.04,18625,22.13,74624.0,3.55,-28.47,-28.79,0,*7B
1497909911.3,18626,22.13,74626.0,3.55,-28.21,-28.63,0,*73
1497909912.5,18627,22.13,74626.3,3.55,-28.31,-28.69,0,*79
1497909913.75,18628,22.13,74626.3,3.53,-28.59,-28.97,0,*7F
1497909914.98,18629,22.13,74624.0,3.55,-28.63,-29.07,0,*79
1497909916.23,18630,22.13,74622.5,3.53,-28.43,-28.85,0,*7E
1497909917.5,18631,22.13,74626.3,3.53,-28.43,-28.75,0,*70
1497909918.76,18632,22.13,74624.0,3.53,-28.43,-28.85,0,*7C
1497909920.02,18633,22.13,74622.5,3.53,-28.05,-28.53,0,*74
1497909921.27,18634,22.13,74624.8,3.53,-28.43,-28.85,0,*7A
1497909922.53,18635,22.13,74624.3,3.55,-28.63,-28.91,0,*7A
1497909923.76,18636,22.13,74624.8,3.53,-28.37,-28.69,0,*79
1497909925.03,18637,22.13,74626.3,3.53,-28.43,-28.91,0,*7C
1497909926.27,18638,22.13,74626.5,3.53,-28.37,-28.69,0,*77
1497909927.52,18639,22.13,74624.3,3.53,-28.37,-28.75,0,*7B
1497909928.75,18640,22.13,74624.8,3.53,-28.53,-28.85,0,*78
1497909930.01,18641,22.13,74624.3,3.53,-28.43,-28.85,0,*78
1497909931.29,18642,22.13,74626.0,3.53,-28.21,-28.59,0,*7E
1497909932.57,18643,22.13,74622.0,3.53,-28.09,-28.59,0,*75
1497909933.78,18644,22.13,74626.0,3.55,-28.15,-28.53,0,*73
1497909935.03,18645,22.13,74626.0,3.53,-28.09,-28.69,0,*70
1497909936.29,18646,22.13,74624.3,3.55,-28.21,-28.63,0,*75
1497909937.49,18647,22.13,74624.3,3.55,-28.37,-28.69,0,*79
1497909938.73,18648,22.13,74624.5,3.55,-28.21,-28.53,0,*78
1497909939.96,18649,22.13,74624.0,3.53,-28.53,-28.85,0,*71
1497909941.23,18650,22.13,74624.0,3.53,-28.59,-29.13,0,*7D
1497909942.46,18651,22.13,74628.8,3.55,-28.31,-28.63,0,*72
1497909943.74,18652,22.13,74626.5,3.53,-28.43,-28.75,0,*75
1497909944.99,18653,22.13,74624.8,3.53,-28.43,-28.85,0,*7B
1497909946.19,18654,22.13,74624.0,3.55,-28.31,-28.69,0,*7D
1497909947.47,18655,22.13,74626.5,3.53,-28.09,-28.43,0,*79
1497909948.67,18656,22.13,74624.0,3.55,-28.15,-28.53,0,*70
1497909949.89,18657,22.13,74624.5,3.55,-28.31,-28.79,0,*7F
1497909951.13,18658,22.13,74624.8,3.53,-28.53,-28.85,0,*71
1497909952.39,18659,22.13,74624.0,3.53,-28.53,-28.91,0,*75
1497909953.63,18660,22.13,74624.8,3.55,-28.47,-28.91,0,*7C
1497909954.89,18661,22.13,74624.5,3.53,-28.43,-28.85,0,*7A
1497909956.15,18662,22.13,74624.8,3.55,-28.21,-28.63,0,*73
1497909957.41,18663,22.13,74626.3,3.53,-28.25,-28.69,0,*7A
1497909958.64,18664,22.13,74622.0,3.53,-28.37,-28.85,0,*7C
1497909959.88,18665,22.13,74626.8,3.53,-28.53,-28.85,0,*7F
1497909961.1,18666,22.13,74626.5,3.53,-28.69,-28.97,0,*76
1497909962.33,18667,22.13,74630.0,3.53,-28.53,-28.97,0,*7E
1497909963.61,18668,22.13,74624.8,3.53,-28.43,-28.91,0,*76
1497909964.87,18669,22.13,74626.3,3.53,-28.53,-28.91,0,*76
1497909966.07,18670,22.13,74624.3,3.55,-28.37,-28.69,0,*7D
1497909967.32,18671,22.13,74624.8,3.53,-28.59,-28.97,0,*73
1497909968.56,18672,22.13,74622.3,3.53,-28.53,-28.85,0,*79
1497909969.76,18673,22.13,74620.8,3.51,-28.69,-28.97,0,*70
1497909970.98,18674,22.13,74624.8,3.51,-28.69,-29.13,0,*7A
1497909972.2,18675,22.13,74626.3,3.51,-28.69,-29.13,0,*7B
1497909973.48,18676,22.13,74626.3,3.49,-28.63,-28.91,0,*70
1497909974.73,18677,22.13,74626.0,3.53,-28.37,-28.75,0,*71
1497909975.98,18678,22.13,74624.5,3.51,-28.43,-28.75,0,*7F
1497909977.21,18679,22.13,74626.3,3.51,-28.53,-28.91,0,*75
1497909978.45,18680,22.13,74624.8,3.51,-28.43,-28.75,0,*78
1497909979.69,18681,22.13,74628.0,3.51,-28.21,-28.69,0,*70
1497909980.89,18682,22.13,74624.0,3.51,-28.37,-28.69,0,*74
1497909982.14,18683,22.13,74624.5,3.51,-28.43,-28.75,0,*7B
1497909983.36,18684,22.13,74622.5,3.51,-28.37,-28.75,0,*7F
1497909984.62,18685,22.13,74620.3,3.51,-28.21,-28.59,0,*77
1497909985.85,18686,22.13,74624.3,3.51,-28.09,-28.53,0,*74
1497909987.13,18687,22.13,74624.8,3.49,-28.25,-28.75,0,*76
1497909988.41,18688,22.13,74624.3,3.49,-28.25,-28.63,0,*7E
1497909989.67,18689,22.13,74626.3,3.51,-28.21,-28.59,0,*7B
1497909990.9,18690,22.13,74626.3,3.51,-28.37,-28.75,0,*7A
1497909992.16,18691,22.13,74624.0,3.51,-28.21,-28.59,0,*72
1497909993.41,18692,22.13,74624.5,3.53,-28.25,-28.69,0,*74
1497909994.67,18693,22.13,74620.8,3.51,-28.21,-28.59,0,*70
1497909995.9,18694,22.13,74624.8,3.51,-28.37,-28.59,0,*70
1497909997.16,18695,22.13,74626.0,3.53,-28.43,-28.85,0,*71
1497909998.41,18696,22.13,74626.5,3.53,-28.37,-28.75,0,*7E
1497909999.64,18697,22.13,74624.0,3.53,-28.37,-28.85,0,*70
1497910000.9,18698,22.13,74626.8,3.53,-28.43,-28.85,0,*7C
1497910002.16,18699,22.13,74624.3,3.53,-28.43,-28.85,0,*7D
1497910003.41,18700,22.13,74624.8,3.53,-28.53,-28.91,0,*78
1497910004.69,18701,22.13,74622.5,3.49,-28.75,-29.17,0,*79
1497910005.9,18702,22.13,74626.5,3.51,-28.37,-28.85,0,*7F
1497910007.09,18703,22.13,74624.3,3.51,-28.69,-29.23,0,*78
1497910008.34,18704,22.13,74626.8,3.51,-28.59,-29.13,0,*7F
1497910009.62,18705,22.13,74626.5,3.49,-28.63,-29.01,0,*7D
1497910010.84,18706,22.13,74624.0,3.51,-28.31,-28.75,0,*72
1497910012.07,18707,22.13,74624.3,3.51,-28.37,-28.75,0,*75
1497910013.29,18708,22.13,74624.3,3.51,-28.69,-29.13,0,*70
1497910014.56,18709,22.13,74622.5,3.49,-28.43,-28.79,0,*7D
1497910015.83,18710,22.13,74626.5,3.49,-28.47,-28.91,0,*77
1497910017.11,18711,22.13,74626.5,3.49,-28.75,-29.17,0,*78
1497910018.35,18712,22.13,74624.5,3.51,-28.79,-29.13,0,*7A
1497910019.63,18713,22.13,74626.5,3.49,-28.79,-29.29,0,*7B
1497910020.9,18714,22.13,74622.5,3.49,-28.75,-29.17,0,*7D
1497910022.1,18715,22.13,74626.0,3.51,-28.53,-28.97,0,*78
1497910023.34,18716,22.13,74626.0,3.45,-28.53,-28.85,0,*7D
1497910024.58,18717,22.13,74622.3,3.45,-28.79,-29.23,0,*79
1497910025.84,18718,22.13,74622.5,3.49,-28.31,-28.63,0,*73
1497910027.04,18719,22.13,74624.5,3.51,-28.53,-28.97,0,*74
1497910028.29,18720,22.13,74622.0,3.51,-28.43,-28.75,0,*73
1497910029.56,18721,22.13,74624.0,3.49,-28.47,-28.75,0,*7F
1497910030.81,18722,22.13,74626.0,3.49,-28.59,-28.97,0,*7F
1497910032.04,18723,22.13,74620.3,3.51,-28.53,-28.91,0,*7B
1497910033.29,18724,22.13,74622.5,3.49,-28.75,-29.23,0,*79
1497910034.49,18725,22.13,74624.0,3.43,-28.85,-29.23,0,*7D
1497910035.71,18726,22.13,74626.8,3.45,-28.69,-29.23,0,*7A
1497910036.96,18727,22.13,74624.3,3.45,-28.69,-29.01,0,*7B
1497910038.18,18728,22.13,74624.3,3.45,-28.53,-28.97,0,*73
1497910039.45,18729,22.13,74622.8,3.45,-28.47,-28.79,0,*77
1497910040.7,18730,22.13,74622.0,3.45,-28.53,-29.01,0,*74
1497910041.95,18731,22.13,74626.5,3.45,-28.53,-28.79,0,*7B
1497910043.2,18732,22.13,74624.5,3.45,-28.69,-29.01,0,*7F
1497910044.42,18733,22.13,74626.8,3.43,-28.63,-29.23,0,*72
1497910045.65,18734,22.13,74626.5,3.43,-28.69,-29.01,0,*7F
1497910046.87,18735,22.13,74626.8,3.43,-28.79,-29.23,0,*7F
1497910048.09,18736,22.13,74626.0,3.43,-28.63,-29.07,0,*71
1497910049.32,18737,22.13,74622.3,3.43,-28.53,-29.01,0,*75
1497910050.56,18738,22.13,74626.0,3.45,-28.63,-29.07,0,*79
1497910051.75,18739,22.13,74624.0,3.43,-28.69,-29.07,0,*74
1497910052.95,18740,22.13,74626.3,3.43,-28.69,-29.07,0,*7A
1497910054.14,18741,22.13,74628.8,3.43,-28.69,-29.07,0,*7B
1497910055.39,18742,22.13,74626.8,3.43,-28.63,-29.01,0,*74
1497910056.59,18743,22.13,74624.0,3.43,-28.53,-28.97,0,*78
1497910057.84,18744,22.13,74626.0,3.45,-28.79,-29.23,0,*7F
1497910059.07,18745,22.13,74624.0,3.43,-28.97,-29.35,0,*7F
1497910060.26,18746,22.13,74624.0,3.43,-28.69,-29.23,0,*7A
1497910061.49,18747,22.13,74626.5,3.43,-28.63,-28.85,0,*7C
1497910062.69,18748,22.13,74626.5,3.43,-28.37,-28.69,0,*70
1497910063.92,18749,22.13,74622.3,3.43,-28.53,-29.01,0,*7C
1497910065.15,18750,22.13,74624.8,3.43,-28.53,-29.01,0,*74
1497910066.37,18751,22.13,74620.8,3.43,-28.79,-29.23,0,*7D
1497910067.63,18752,22.13,74624.0,3.41,-28.53,-29.01,0,*74
1497910068.9,18753,22.13,74624.8,3.41,-28.59,-29.01,0,*7F
1497910070.12,18754,22.13,74622.8,3.39,-28.75,-29.07,0,*7F
1497910071.37,18755,22.13,74624.8,3.43,-28.63,-29.01,0,*72
1497910072.64,18756,22.13,74624.8,3.41,-28.75,-29.13,0,*77
1497910073.89,18757,22.13,74628.3,3.41,-28.75,-29.07,0,*73
1497910075.14,18758,22.13,74624.0,3.39,-28.59,-28.91,0,*73
1497910076.42,18759,22.13,74620.5,3.41,-28.25,-28.75,0,*7C
1497910077.69,18760,22.13,74624.0,3.41,-28.75,-29.13,0,*72
1497910078.93,18761,22.13,74626.5,3.41,-28.53,-28.85,0,*79
1497910080.17,18762,22.13,74626.3,3.41,-28.59,-29.07,0,*7B
1497910081.42,18763,22.13,74626.0,3.41,-28.85,-29.29,0,*77
1497910082.7,18764,22.13,74624.0,3.41,-28.91,-29.29,0,*75
1497910083.93,18765,22.13,74620.3,3.39,-28.85,-29.39,0,*7F
1497910085.14,18766,22.13,74624.5,3.39,-28.69,-29.13,0,*76
1497910086.4,18767,22.13,74626.3,3.41,-28.53,-28.91,0,*7A
1497910087.68,18768,22.13,74624.8,3.41,-28.75,-29.01,0,*79
1497910088.95,18769,22.13,74624.8,3.41,-28.75,-29.13,0,*7B
1497910090.23,18770,22.13,74624.3,3.41,-28.59,-28.91,0,*76
1497910091.49,18771,22.13,74622.8,3.41,-28.53,-29.01,0,*75
1497910092.74,18772,22.13,74622.5,3.41,-28.59,-29.07,0,*7A
1497910093.97,18773,22.13,74622.0,3.41,-28.53,-28.85,0,*7A
1497910095.25,18774,22.13,74626.5,3.41,-28.59,-29.01,0,*7A
1497910096.54,18775,22.13,74626.3,3.41,-28.21,-28.59,0,*78
1497910097.76,18776,22.13,74622.8,3.39,-28.37,-28.75,0,*7D
1497910098.98,18777,22.13,74624.8,3.39,-28.85,-29.13,0,*74
1497910100.2,18778,22.13,74620.0,3.39,-28.69,-29.13,0,*79
1497910101.42,18779,22.13,74620.3,3.39,-28.69,-29.13,0,*78
1497910102.63,18780,22.13,74624.0,3.39,-28.75,-29.07,0,*76
1497910103.91,18781,22.13,74626.0,3.41,-28.25,-28.75,0,*79